Flight Briefing for CPX762

Departure Arrival
Jorge Chávez International Airport (SPJC)
Click to view FAA NOTAMS
Miami International Airport (KMIA)
Click to view FAA NOTAMS
Departure Time Arrival Time
0930 UTC 1530 UTC
Aircraft Distance
B767-300BDSF 2376nm
Departure METAR Arrival METAR
SPJC 201000Z 18004KT CAVOK 20/18 Q1011 NOSIG RMK PP000 KMIA 200953Z 34007KT 10SM SCT006 BKN040 BKN080 OVC150 18/18 A2995 RMK AO2 RAB10E22 SLP143 P0000 T01780178
Suggested Route
XOPLI UG448 IKBIX Y183 PEAKY DVALL CURSO5


View recent IFR Routes data
Notes



Charts and Procedures

Charts for SPJC
No chart available
Charts for KMIA
No chart available

Windy.com Weather Map